Tracking 29892 objects as of 21-Nov-2024
HD Live streaming from Space Station
objects crossing your sky now

CHOLLIMA-1 R/B

Track CHOLLIMA-1 R/B now!
10-day predictions


NORAD ID: 58401
Int'l Code: 2023-179B
Perigee: 446.4 km
Apogee: 487.5 km
Inclination: 97.4 °
Period: 93.8 minutes
Semi major axis: 6837 km
RCS: Unknown
Launch date: November 21, 2023
Source: North Korea (NKOR)
Launch site: Yunsong, DPRK (YUN)

Note: This is a ROCKET BODY
Your satellite tracking list
Your tracking list is empty




NASA's NSSDC Master Catalog

Two Line Element Set (TLE):
1 58401U 23179B   24325.63611293  .00018769  00000-0  53997-3 0  9994
2 58401  97.3671 213.3177 0030017  85.5546 274.9126 15.35372246 55785
Source of the keplerian elements: AFSPC